GFSMA_con_sbcape_000.txt.gz
CAPE
894 1324 1108 1163 956 971 666 850 630 635 636 605 760 692 768 590 254 339 1322 2363 2122 2201 2517 2287 2384 1725 1493 1209 952 694 897 804 603 603 644 906 988 818 851 389 461 734 770
843 1219 870 716 604 691 802 831 733 667 633 491 590 588 621 660 427 161 1039 1308 2348 2062 2416 3013 2853 2716 1784 1504 1264 1108 1509 1929 1602 1182 1251 1063 1052 1320 1067 981 1121 1066 1238
1075 901 660 479 509 508 650 655 460 340 329 459 424 444 436 391 435 205 366 1143 1445 2601 2058 2489 3193 2935 2937 2072 1706 2119 2180 1957 1979 1763 1587 1548 1680 1825 1842 1827 1729 1511 1557
1078 762 449 388 446 396 469 263 84 124 130 198 191 126 97 124 326 424 405 588 1160 1511 1966 2092 2134 2982 3047 2409 2740 2511 2482 2455 2390 2169 1963 1856 1678 1569 1746 1879 1855 1606 1584
945 725 420 605 473 271 171 135 153 112 261 198 178 197 55 0 115 440 401 453 627 1023 1087 1650 1727 1827 2565 2352 2989 3098 2884 2520 2388 2475 2458 2322 2174 2040 1796 1530 1393 1364 1424
915 935 574 631 499 489 383 328 300 80 156 211 276 541 213 144 88 130 173 216 385 675 1161 1210 1172 1344 1990 2298 2695 3143 3158 2854 2590 2618 2465 2296 2136 2056 1836 1763 1546 1568 1539
906 806 828 791 734 631 511 402 334 315 240 141 227 49 11 32 24 52 147 199 281 477 529 960 1091 970 1364 1639 1679 2183 3027 3275 2899 2665 2776 2311 2117 1989 1943 1802 1610 1745 1757
973 901 1032 925 610 463 316 175 170 286 209 315 348 4 1 0 0 0 31 86 265 194 220 527 555 1033 834 895 1146 1554 1694 2509 2980 2950 2696 2564 2311 2071 1881 1679 1420 1437 1480
39 227 162 48 69 86 86 135 178 266 217 169 161 103 43 0 0 0 0 2 47 103 110 117 138 343 610 709 1098 1225 1704 1163 1714 2842 2857 2567 2265 2086 1980 1706 1421 1185 1090
0 0 0 47 82 28 146 186 411 325 248 170 58 51 3 29 29 19 0 0 0 0 0 58 243 243 170 64 209 619 1245 1239 1345 1707 2619 2886 2482 2298 2103 1852 1560 1244 1033
0 0 101 15 0 0 0 182 58 184 117 189 78 12 0 0 0 0 0 0 0 0 0 35 51 159 177 32 0 19 487 952 1063 1409 1609 2242 2515 2856 2680 2440 1990 1620 1388
0 0 0 0 0 0 1 0 65 114 79 83 8 0 0 0 0 0 0 0 0 0 0 0 3 30 196 161 128 274 563 356 317 688 987 1300 1619 2007 2986 2956 2648 2196 1909
0 0 0 0 0 0 0 1 8 0 24 27 0 0 0 0 0 0 0 0 0 0 0 0 0 3 11 189 443 755 717 539 123 35 10 90 512 1164 1539 2549 2848 2784 2614
0 0 0 0 0 0 0 0 0 0 25 8 0 0 0 0 0 0 0 0 0 0 0 0 0 0 0 0 0 204 562 521 214 9 0 0 3 178 731 994 1728 2156 2156
0 0 0 0 0 0 0 0 4 69 7 0 0 2 0 0 0 0 0 0 0 0 0 0 0 0 0 0 0 0 26 301 139 18 0 0 0 6 230 558 673 1101 1352
0 0 0 0 0 0 0 0 0 0 0 2 0 46 5 1 0 0 0 0 0 0 0 0 0 0 0 0 0 0 5 122 202 43 0 0 0 0 24 134 271 385 644
0 21 23 4 0 0 0 18 13 0 0 0 25 40 52 2 0 0 0 0 0 0 0 0 0 0 0 0 0 0 0 16 111 26 0 0 0 0 0 0 10 52 188
0 0 0 0 0 0 1 13 49 45 34 45 44 13 39 20 0 0 0 0 0 0 1 0 0 0 0 0 0 0 3 9 54 87 0 0 0 0 0 0 0 0 0
0 0 0 0 0 0 0 7 23 68 68 57 65 24 25 21 9 0 0 0 0 0 0 0 1 0 0 0 0 1 0 0 21 21 10 0 0 0 0 0 0 0 0
0 0 0 0 0 0 0 17 46 124 66 42 18 31 59 18 12 0 0 0 0 0 0 0 0 1 0 0 0 6 2 1 2 40 83 0 0 0 0 0 0 0 0
0 0 0 0 0 0 25 138 148 95 73 52 75 73 68 55 71 20 9 0 0 0 0 2 2 0 0 0 1 7 21 4 0 4 15 13 0 0 0 0 0 0 0
4 0 11 43 13 19 157 63 12 4 1 9 11 2 13 120 152 216 145 130 9 0 0 3 0 0 2 8 18 10 18 16 10 0 0 91 0 0 0 0 0 0 0
16 7 53 8 26 74 60 19 29 0 0 0 0 0 0 36 87 59 17 20 25 34 59 29 16 14 23 27 32 20 19 14 17 3 4 15 150 36 9 0 0 0 0
191 155 56 36 139 50 115 176 14 0 0 0 0 1 0 0 0 0 0 0 0 0 0 0 1 6 8 14 23 20 10 13 9 14 21 21 54 134 111 96 8 0 0
159 58 83 43 39 66 69 134 5 0 0 0 0 0 0 0 0 0 0 0 0 0 0 0 0 0 3 1 14 14 29 19 7 4 10 31 21 125 110 104 58 0 0
227 312 152 105 0 58 10 0 0 0 0 0 0 0 0 0 0 0 0 0 0 0 0 0 0 0 1 4 1 25 9 13 6 11 0 39 111 169 104 88 176 1 0

GFSMA_con_sbcape_003.txt.gz
CAPE
426 424 647 632 536 561 489 540 466 399 313 322 345 464 499 415 492 221 578 1870 2212 2260 1973 2321 2170 1682 1274 1172 1156 1050 878 608 660 800 856 539 703 1065 892 271 403 504 567
506 788 520 476 369 442 375 551 471 340 277 231 272 254 229 292 323 273 128 877 2476 2627 2506 2152 2330 2137 1343 1088 1228 994 1491 1462 1348 1060 1310 1333 1391 1451 853 626 502 673 1348
713 645 472 235 204 230 228 254 111 1 0 17 54 124 79 61 77 260 219 370 1020 2218 2779 2570 2280 2114 2321 1585 1413 1637 1725 1696 2130 1802 1504 1488 1453 1340 1430 1428 1463 1512 1409
818 579 220 235 207 146 131 117 1 1 10 0 0 27 14 16 24 128 286 295 637 1323 1834 2676 2350 2027 1954 2077 1889 2215 2191 2072 1993 2152 2023 1814 1732 1681 1848 1935 1768 1690 1767
701 536 115 111 132 141 95 21 1 2 34 10 16 46 59 47 38 109 86 119 162 672 1084 1548 1928 1965 1766 1833 2501 2235 2325 2379 2275 2366 2245 2097 1947 1837 1719 1575 1725 1842 1828
598 514 469 347 313 227 152 66 98 13 9 20 50 121 31 12 10 25 45 81 95 177 600 1031 1027 996 1697 1882 2031 1846 2556 2504 2424 2561 2409 2352 2269 2068 1896 1801 1602 1484 1400
666 455 413 372 273 261 211 143 112 134 185 38 66 4 0 0 0 0 0 54 90 210 347 671 746 747 863 1410 1569 1785 1973 2639 2374 2500 2552 2189 2195 2220 2041 1828 1620 1648 1482
605 505 482 461 528 268 110 32 52 84 128 168 209 0 0 0 0 0 0 16 0 18 184 223 339 513 781 783 953 1484 1679 1926 2020 2314 2256 2222 2404 2216 1963 1711 1556 1560 1490
759 532 428 307 5 0 0 0 6 28 89 89 118 79 8 0 0 0 0 0 0 0 0 9 162 341 418 531 731 921 1306 1325 1766 2036 1956 2042 2082 2302 2113 1843 1613 1459 1282
2 10 0 0 0 0 0 0 197 152 40 41 7 67 22 23 0 0 0 0 0 0 0 0 2 17 168 203 245 551 979 1032 1056 1357 1774 1786 1921 2152 2302 2084 1768 1505 1314
0 0 0 0 0 0 0 10 0 29 11 35 4 0 0 0 0 0 0 0 0 0 0 0 0 0 26 116 97 66 194 352 400 820 1147 1546 1718 2126 2384 2293 2079 1773 1572
0 0 0 0 0 0 0 0 0 0 0 8 0 0 0 0 0 0 0 0 0 0 0 0 0 0 0 2 0 0 219 695 476 405 568 884 1294 1905 2319 2571 2297 2261 2066
0 0 0 0 0 0 0 0 0 0 0 0 0 0 0 0 0 0 0 0 0 0 0 0 0 0 0 0 0 0 0 0 76 398 208 422 718 977 1354 1838 2253 2474 2283
0 0 0 0 0 0 0 0 0 0 0 0 0 0 0 0 0 0 0 0 0 0 0 0 0 0 0 0 0 0 0 0 0 16 129 53 42 170 571 890 1176 1574 1963
0 0 0 0 0 0 0 0 0 0 0 0 0 0 0 0 0 0 0 0 0 0 0 0 0 0 0 0 0 0 0 0 0 3 6 0 11 0 0 91 405 674 941
0 0 0 0 0 0 0 0 0 0 0 0 0 0 0 0 0 0 0 0 0 0 0 0 0 0 0 0 0 0 0 0 0 0 0 0 0 0 0 0 0 96 286
0 0 0 0 0 0 0 0 0 0 0 0 0 10 2 0 0 0 0 0 0 0 0 0 0 0 0 0 0 0 0 0 0 1 1 4 0 0 0 0 0 0 30
0 0 0 0 0 0 0 0 0 0 0 0 11 0 6 2 0 0 0 0 0 0 0 0 0 0 0 0 0 0 0 0 0 0 0 0 4 0 0 0 0 0 0
0 0 0 0 0 0 0 0 0 0 0 10 32 19 11 0 0 0 0 0 0 0 0 0 0 0 0 0 0 0 0 0 0 0 2 5 3 0 0 0 0 0 0
0 0 0 0 0 0 0 0 0 0 13 30 39 23 0 8 9 0 0 0 0 0 0 0 0 0 0 0 0 0 0 0 0 0 0 0 2 0 0 0 0 0 0
0 0 0 0 0 0 0 0 4 49 74 49 28 18 1 0 74 16 1 0 0 0 0 0 0 0 0 0 0 0 0 7 1 5 1 0 0 0 17 0 0 0 0
0 0 0 0 0 0 0 16 44 25 16 0 0 0 0 0 0 60 188 214 19 0 0 0 0 0 0 0 0 4 4 14 11 5 3 0 31 15 50 26 0 0 0
0 0 0 0 0 0 0 2 11 0 0 0 0 0 0 0 5 0 3 20 46 54 79 4 0 0 0 0 4 2 9 12 10 9 26 16 2 5 6 15 0 0 0
1 6 1 0 0 0 0 0 5 0 0 0 0 0 0 0 0 0 0 0 0 0 0 0 0 0 0 0 0 4 10 10 11 14 8 19 5 10 6 134 0 0 0
37 57 42 0 0 0 6 15 10 0 0 0 0 0 0 0 0 0 0 0 0 0 0 1 0 0 0 0 1 6 15 10 11 8 10 10 5 1 9 40 177 0 0
79 73 126 0 0 13 21 0 0 0 0 0 0 0 0 0 0 0 0 0 0 0 0 0 0 0 0 0 1 7 9 15 13 13 4 5 6 16 26 64 227 24 0

GFSMA_con_sbcape_006.txt.gz
CAPE
308 231 590 724 666 625 593 669 684 575 448 502 517 526 511 543 628 600 419 769 2139 2123 1738 1815 1592 1874 1108 748 808 1173 873 708 660 684 716 500 746 719 748 404 359 504 745
468 410 504 532 486 521 457 671 610 436 200 160 248 259 321 308 357 366 425 606 1140 2148 2407 1823 1808 1726 1816 1185 995 998 1025 1086 1121 979 1267 1545 1199 1158 1030 724 453 411 877
468 437 427 364 383 214 278 264 212 34 71 101 130 115 69 110 191 217 395 627 777 1065 1569 2360 2212 2146 1691 1855 1371 1387 1793 1577 1807 1520 1482 1478 1492 1545 1600 1433 1201 1250 1423
813 522 328 189 221 231 171 209 79 98 130 77 75 90 90 90 108 133 236 362 636 744 1304 1560 2359 2133 1763 1721 1940 1918 1983 1843 1622 1789 1934 1732 1623 1710 1595 1519 1621 1642 1626
786 591 176 172 205 255 197 117 69 49 127 115 144 293 186 197 187 180 185 204 214 469 568 832 1696 1957 1615 1489 1794 2019 1807 1945 2071 1927 1866 2196 2070 1918 1819 1701 1933 1987 1862
613 511 297 309 284 252 133 57 71 36 49 56 198 255 133 54 72 102 120 224 303 364 451 798 1476 1306 1485 1682 1744 1770 1902 1816 1763 1962 1932 2120 2174 2068 1903 1751 1704 1651 1787
602 481 429 260 167 209 173 117 94 109 142 7 112 129 32 0 9 0 31 154 0 14 430 928 1164 1358 1236 1189 1647 1858 1781 2001 2075 1844 1855 1822 1979 2234 2081 1802 1714 1692 1577
530 369 312 234 250 192 43 0 37 66 99 136 152 1 17 17 2 9 16 16 0 0 0 87 331 363 548 898 989 1184 1631 1810 2015 2176 2043 1799 1815 1904 1992 1964 1795 1735 1649
554 453 297 263 94 0 7 0 0 6 115 90 58 83 5 4 10 3 13 0 0 0 0 0 5 31 186 372 343 461 623 1040 1187 1558 1831 1834 1733 1676 1709 1953 1800 1640 1475
343 80 4 0 0 0 0 0 37 57 29 50 25 83 6 28 39 9 0 0 0 0 0 0 0 0 30 62 15 106 273 462 486 607 917 1656 1518 1699 1803 1957 1989 1728 1524
0 0 0 0 0 0 0 0 3 18 0 26 1 0 0 0 1 0 0 0 0 0 0 0 0 0 0 0 0 0 0 0 0 118 578 700 773 1692 1987 2056 2263 2096 1963
0 0 0 0 0 0 0 0 0 0 0 6 0 0 0 0 0 0 0 0 0 0 0 0 0 0 0 0 0 0 0 0 0 0 0 102 641 844 1049 2036 2040 2196 2369
0 0 0 0 0 0 0 0 0 0 0 0 0 0 0 0 0 0 0 0 1 0 0 0 0 0 0 0 0 0 0 0 0 0 0 0 51 365 788 1438 1816 1993 2088
0 0 0 0 0 0 0 0 0 0 0 0 0 0 0 0 0 0 0 0 0 0 0 0 0 0 0 0 0 0 0 0 0 0 0 0 0 8 159 384 878 1197 1391
0 0 0 0 0 0 0 0 0 0 0 0 0 0 0 0 0 0 0 0 0 0 0 0 0 0 0 0 0 0 0 0 0 0 0 0 0 1 7 15 51 163 618
0 0 0 0 0 0 0 0 0 0 0 0 0 0 0 26 5 0 0 0 0 0 0 0 0 0 0 0 0 0 0 0 0 0 0 0 0 0 5 7 0 0 13
0 0 0 0 0 0 0 0 0 0 0 0 0 0 24 26 20 0 0 0 0 1 0 0 0 0 0 0 0 0 0 0 0 0 0 0 0 0 0 2 5 0 0
0 0 0 0 0 0 0 0 0 0 0 0 38 34 59 44 25 14 0 0 0 0 0 0 0 0 0 0 0 0 0 0 0 0 0 0 0 0 0 0 0 0 0
0 0 0 0 0 0 0 0 0 0 0 0 27 37 46 27 11 0 0 0 3 12 2 2 0 0 0 0 0 0 0 0 0 0 0 0 0 0 0 0 0 0 0
0 0 0 0 0 0 0 0 0 0 0 0 21 23 18 8 5 5 0 0 24 23 36 7 0 0 1 0 0 0 0 0 0 0 0 0 0 0 0 0 0 0 0
0 0 0 0 0 0 0 0 0 0 0 32 37 19 0 0 22 26 16 31 0 9 37 12 0 0 0 0 0 0 0 0 0 0 0 0 1 5 12 1 0 0 0
0 0 0 0 0 0 0 0 0 0 26 33 10 0 0 0 0 2 23 63 88 82 91 38 0 1 0 1 0 1 3 3 16 3 12 9 22 14 16 4 0 21 0
0 0 0 0 0 0 0 0 0 22 0 0 0 0 0 0 4 0 0 4 31 40 93 178 1 5 8 0 7 13 10 3 18 2 7 9 5 8 22 6 0 0 0
0 0 0 2 0 9 2 0 1 21 0 0 0 0 0 0 0 0 0 3 0 0 0 0 0 0 3 6 12 13 4 16 13 12 13 14 17 8 18 14 0 0 0
0 17 23 16 30 73 31 4 0 0 0 0 0 0 0 0 0 0 0 0 0 0 0 0 0 0 1 3 6 12 5 18 19 12 11 11 9 10 17 15 18 0 0
0 58 16 3 4 4 2 0 0 0 0 0 0 0 0 0 0 0 0 0 0 0 0 0 0 0 4 2 3 12 28 18 15 9 8 8 9 8 11 9 10 13 19

GFSMA_con_sbcape_009.txt.gz
CAPE
1938 1759 1572 1667 1769 1514 1492 1559 1638 1613 1401 929 964 947 826 922 985 857 1172 1096 1155 1865 1678 1815 1530 1503 1322 828 1341 1306 838 814 621 1146 876 1051 874 750 660 471 592 585 598
2806 2385 1700 1723 1511 1487 1286 1435 1470 1245 993 1000 795 727 613 474 683 787 602 1152 967 1363 1919 2045 1924 1777 1635 1571 983 857 1532 1621 1454 1015 1330 1480 1370 1239 842 628 675 459 777
2253 2204 2251 2124 1636 1391 1353 1217 1217 953 845 601 565 420 459 482 314 674 677 732 1025 1127 1362 1639 2469 2518 2060 1743 1808 1769 1789 1636 1878 1660 1581 1585 1545 1646 1505 1465 1526 1257 1221
2267 2332 2700 2268 1386 1427 1184 1271 1166 982 794 535 471 467 556 413 576 599 543 612 506 679 977 1321 1526 2479 2003 1347 1692 1702 1996 1847 1918 2105 1904 1828 1830 1817 1810 1705 1643 1655 1699
2141 2460 2453 1960 1526 1402 1527 1246 972 992 498 372 338 399 436 413 487 321 651 792 796 861 632 687 1056 1319 1647 1573 1788 1792 1938 1814 1705 1939 2069 2182 1874 1857 1822 1870 1798 1727 1837
1874 1787 1837 1727 1550 1482 1213 1003 1092 859 740 684 504 413 403 337 287 384 620 509 226 993 1285 1440 1429 1479 1374 1513 1710 1962 2078 1831 1864 1909 1833 1922 2145 2174 2076 1941 1874 1834 2045
1785 1798 2063 1766 1514 1192 1062 1123 807 700 407 648 682 140 254 285 276 250 366 161 0 51 308 770 1244 1301 1337 1164 1380 1402 1395 1919 1951 2022 1883 1745 1962 1954 2016 2008 1846 1855 1834
1962 1931 1796 1432 1237 917 1104 702 748 433 478 693 477 299 11 250 290 239 121 2 0 0 7 175 233 446 633 778 747 678 786 923 1350 1720 1948 1790 1675 1775 1793 1805 1874 1807 1791
1927 1798 1517 1168 1164 684 130 585 462 664 443 566 644 372 25 11 129 207 238 0 0 0 0 1 41 108 15 0 24 118 155 362 654 918 1100 1593 1900 1728 1683 1658 1701 1816 1776
1800 1655 1405 738 791 273 595 481 372 638 641 228 349 532 419 422 10 0 0 0 0 0 0 0 0 0 0 0 0 0 0 0 0 10 154 725 1001 1253 1863 1890 1699 1701 1840
1770 1250 748 522 528 466 704 321 631 471 415 276 249 242 211 107 136 0 0 0 0 0 0 0 0 0 0 0 0 0 0 0 0 0 0 0 29 520 1114 1341 1991 1939 1878
1089 571 301 383 623 662 536 237 384 397 374 447 440 217 0 0 0 0 0 1 0 0 0 0 0 0 0 0 0 0 0 0 0 0 0 0 0 0 185 812 1203 1716 2306
740 262 306 357 471 647 306 248 350 368 281 288 596 115 86 45 66 47 26 3 0 0 0 0 0 0 0 0 0 0 0 0 0 0 0 0 0 0 0 25 295 989 1395
637 265 314 359 530 173 86 220 219 223 261 217 480 496 114 140 230 222 119 44 4 0 0 0 0 0 0 0 0 0 0 0 0 0 0 0 0 0 0 0 1 125 458
244 256 293 396 178 0 52 271 63 214 316 385 336 543 412 161 228 267 291 117 47 19 11 0 0 0 0 0 0 0 0 0 0 0 0 0 0 0 0 0 0 2 21
230 293 326 182 50 4 18 264 91 83 195 186 214 443 511 266 333 498 335 199 78 50 17 10 7 0 0 0 0 0 0 0 0 0 0 0 0 0 0 0 0 0 3
275 308 329 123 81 48 65 168 226 97 100 226 482 529 567 637 373 413 370 247 155 113 112 0 8 22 0 43 35 54 29 0 0 0 0 0 0 0 0 0 0 0 0
210 205 242 194 147 103 145 270 228 0 153 306 311 526 539 398 605 576 300 371 351 238 142 134 153 51 106 112 119 178 68 0 0 0 0 0 0 0 0 0 0 0 0
168 78 174 228 187 199 360 438 327 109 232 334 380 479 467 606 622 305 287 174 141 500 191 136 98 46 57 118 139 183 105 28 2 0 0 0 0 0 0 0 0 0 0
336 215 153 277 272 324 290 169 19 155 291 289 399 485 556 511 409 242 184 249 220 195 151 149 96 66 69 244 135 113 51 22 12 1 0 0 0 0 0 0 0 0 0
57 61 125 134 217 158 30 46 125 277 493 497 458 669 586 359 87 45 52 85 198 190 107 96 90 82 73 75 124 79 46 23 76 18 10 5 4 4 0 1 4 0 0
0 11 1 87 253 65 0 0 36 360 549 634 617 584 426 22 1 0 0 34 77 144 159 699 191 142 230 149 123 31 11 3 3 8 22 22 15 6 4 11 3 0 0
0 0 0 14 421 380 5 0 0 216 495 532 604 529 227 68 7 55 4 0 15 2 44 200 142 158 128 81 26 13 10 17 15 21 40 25 22 28 8 1 6 3 0
157 3 16 227 643 455 26 0 0 181 415 547 474 325 212 172 127 9 26 48 78 79 83 37 28 17 6 1 6 18 20 14 12 16 111 74 37 16 5 23 26 13 0
102 176 127 185 294 310 2 0 4 112 200 368 470 180 63 60 0 0 0 6 59 57 5 0 0 0 0 0 1 17 9 21 12 34 11 1 1 10 17 22 37 18 0
21 95 139 417 368 929 15 2 15 73 64 145 184 29 0 0 0 0 0 0 37 49 4 0 0 0 1 1 0 12 6 23 29 11 1 3 8 14 15 10 12 16 29

GFSMA_con_sbcape_015.txt.gz
CAPE
2271 1610 1494 1652 1953 1877 1673 1894 2159 1936 2025 1633 1509 986 739 421 356 260 534 2075 1490 1366 2010 1944 1993 1907 1951 1373 1831 1601 1523 913 597 690 920 541 771 855 1119 808 529 599 974
2386 2921 2808 1451 1467 2274 2171 2069 1991 2031 2309 1997 1286 955 205 138 44 55 94 1309 1995 1381 1886 2021 1998 1920 1916 1852 1565 1912 1805 1532 951 697 914 1288 1586 1325 995 628 428 532 863
1946 2351 2031 1616 2226 1913 2133 1855 1680 1817 1746 1385 233 75 9 28 24 121 128 79 1213 2104 2095 2074 2226 2418 2239 2028 1975 1766 2460 2428 2129 1918 1837 1880 1865 2006 1833 1572 1222 1197 1326
2338 2321 1806 1792 2055 2041 2054 2314 1622 1888 865 123 8 6 5 28 163 180 101 171 130 242 2075 2392 1733 2052 1927 1783 1959 2342 2109 2260 2624 2560 2381 2224 2086 2105 1949 1921 1957 1918 1666
2382 2488 2042 1782 1997 1725 2228 1746 1721 950 117 5 0 0 30 102 109 110 69 226 494 426 399 2297 2149 1641 1710 1833 1923 2070 2284 2169 2138 2165 2248 2452 2224 2161 2133 2104 2130 2122 2031
2147 2383 1702 1833 1915 2212 1868 2020 876 355 133 59 0 1 52 165 142 136 190 152 191 527 813 776 1526 1274 1519 1561 1817 2006 1978 2211 2215 1859 1817 1945 2157 2212 2254 2064 1921 1917 2050
2338 2033 2165 2289 2025 1739 1576 723 373 22 1 136 36 126 123 166 248 101 129 9 1 78 412 755 1561 1847 1726 1575 1548 1573 1509 1349 1993 2071 2093 1915 1802 2018 2071 2043 2035 2107 2172
2546 2035 2623 1661 2085 1151 1101 442 126 22 7 301 132 12 54 528 340 100 75 4 0 3 70 396 773 1321 1580 1494 858 356 304 686 1118 1259 1222 1505 1787 1961 1928 1881 1818 1854 1938
2041 2181 2104 2176 1786 993 87 320 181 86 44 82 187 100 71 186 130 288 116 3 0 0 0 0 47 9 134 233 570 5 0 0 0 11 90 274 569 1051 1459 1906 1895 1714 1722
1450 2181 1835 1206 1109 400 1059 321 90 235 172 69 11 27 163 148 133 190 69 3 0 0 0 0 0 0 0 0 0 0 0 0 0 0 0 0 0 18 233 748 1586 1717 1777
1216 1004 1030 1255 723 10 255 487 119 298 273 81 11 23 109 20 0 1 14 43 32 3 0 0 0 0 0 0 0 0 0 0 0 0 0 0 0 0 0 0 197 673 1638
1118 1109 1062 1065 403 396 463 353 244 191 246 298 203 73 9 11 23 18 13 30 36 31 23 4 6 0 0 0 0 0 0 0 0 0 0 0 0 0 0 0 0 3 170
815 2189 1719 1331 407 676 593 459 466 333 207 200 129 150 23 18 24 16 15 19 24 30 77 26 35 6 0 0 0 0 0 0 0 0 0 0 0 0 0 0 0 0 0
856 2807 1666 1157 463 619 653 628 268 132 508 92 50 72 26 26 27 43 47 41 69 70 275 559 217 59 10 1 6 0 0 10 0 0 0 0 0 0 0 0 0 0 0
703 1153 1645 1021 616 663 706 777 162 550 269 306 302 293 87 4 18 28 69 255 155 61 54 300 349 273 102 52 51 2 16 15 6 0 0 0 0 0 0 0 0 0 0
1931 2078 1412 960 705 710 637 581 634 372 330 204 27 124 187 41 22 40 169 208 243 108 67 90 90 238 351 59 103 86 50 95 29 3 0 0 0 0 0 0 0 0 0
2670 1907 1950 1123 668 926 373 429 512 293 409 545 298 95 156 390 66 29 42 46 29 27 32 20 26 137 934 675 487 379 146 312 84 44 35 0 0 0 0 0 0 0 0
2714 2356 2032 1410 1112 850 777 660 459 226 198 133 101 646 306 93 1474 1490 258 847 289 281 19 530 190 45 392 590 832 1060 163 52 77 29 33 4 0 0 0 0 0 0 0
3144 1741 1717 1115 1202 597 401 496 867 888 770 576 513 914 730 959 1423 574 1105 454 72 325 226 83 75 103 33 148 263 275 505 223 215 62 22 13 4 0 0 0 0 0 0
3034 1692 1906 1458 1008 351 426 276 586 597 945 776 857 960 859 1021 1427 1365 971 1371 1052 506 295 86 97 90 95 84 251 175 125 41 96 63 46 17 22 40 1 0 0 0 0
2711 1965 1760 1415 887 460 265 75 503 571 965 913 783 925 1014 1054 555 581 607 996 1387 408 131 99 107 70 121 164 165 164 99 83 62 198 124 95 65 59 99 89 35 8 0
2785 2092 1564 1118 460 153 0 94 533 597 754 1009 1098 1257 1357 796 418 164 121 48 50 173 528 172 89 103 338 207 144 150 88 30 19 150 89 21 47 207 315 403 143 8 0
2411 1792 1311 737 456 100 0 0 0 247 652 720 866 1444 1223 545 406 667 173 1 1 0 0 160 325 399 422 425 505 408 318 93 8 0 15 21 78 242 371 378 42 1 0
1743 1703 1306 587 199 250 0 0 0 83 247 303 784 1371 1556 1502 1155 722 722 254 435 751 420 102 300 387 478 365 122 65 76 27 31 26 201 156 187 154 107 395 16 0 0
1571 1072 828 521 479 868 0 0 0 0 110 297 530 1286 1518 1323 284 35 65 222 590 632 174 0 8 0 0 0 1 1 8 23 26 39 72 164 126 168 142 129 60 0 0
1420 795 570 353 221 776 5 0 0 330 729 579 627 1408 238 188 4 0 5 158 290 338 182 194 160 14 11 19 1 31 50 59 50 50 50 58 30 71 60 18 12 5 0

GFSMA_con_sbcape_021.txt.gz
CAPE
845 435 1510 937 1129 863 1281 925 1494 1136 1066 1196 943 458 160 0 100 943 1043 2322 2071 2531 2311 2248 1744 1856 1951 1350 1706 1604 1222 851 1053 1286 1385 1161 1027 1149 1380 1083 1118 910 885
782 1379 1322 1049 1425 1319 1668 1385 1082 1126 1146 1414 1333 1013 636 4 10 125 981 1388 2198 1938 2538 2358 2388 2015 1981 1890 1792 1831 1680 1271 1066 824 1612 1773 1565 1665 1435 1174 1051 770 977
1262 1552 1445 1134 1642 1453 1592 1323 1031 1165 1316 1253 1023 822 109 3 11 10 116 992 1313 1808 2071 2807 2712 2473 2135 1715 1741 1867 2391 2316 1906 1533 1495 1640 1670 1717 1602 1728 1529 1267 1214
1760 1315 1749 1603 1255 1223 895 792 847 823 872 397 0 0 0 2 21 16 10 182 950 1068 1874 2389 2263 2459 2182 2087 2086 1967 2049 2153 2260 2147 1832 1720 1735 2057 2086 2161 1868 1690 1704
1748 1375 1632 1498 1424 1133 989 958 519 512 15 0 0 0 0 60 15 52 28 14 46 758 1095 1970 2149 2091 1816 1688 1911 2033 2126 2045 2469 2184 2296 2299 2273 2188 2107 2098 2056 1990 1965
1861 1427 1297 1493 1236 916 1026 544 488 301 0 0 0 0 1 5 4 96 36 25 19 896 1080 1042 1070 1145 1809 1825 2061 2085 1877 1802 1963 2068 2094 2124 2267 2330 2268 2229 2027 1922 1826
1693 1370 1125 1347 1466 1080 928 467 158 0 0 15 0 23 27 77 21 17 0 0 0 324 599 713 900 979 1139 1395 1852 1778 1583 1422 1476 1743 1496 1327 1409 1667 1850 1975 1977 2033 2084
1741 1241 1198 1372 1287 1274 836 23 0 0 3 105 0 0 45 69 74 20 0 0 0 0 327 440 501 540 825 374 345 525 466 711 1215 1212 1220 1176 1100 1178 1346 1369 1253 1257 1622
1941 1576 1472 1352 1315 803 149 0 0 7 3 133 0 0 10 28 90 40 1 0 0 0 0 0 0 171 343 9 0 0 0 0 0 0 9 11 10 69 249 483 852 1076 1165
1628 1558 1464 1294 745 373 121 17 3 2 34 0 60 1 0 0 2 32 13 0 0 0 0 0 0 0 176 0 0 0 0 0 0 0 0 0 0 0 0 0 72 338 749
1523 1589 1510 1361 331 173 256 51 0 0 41 87 42 173 0 3 0 0 9 9 28 0 0 0 0 0 0 0 0 0 0 0 0 0 0 0 0 0 0 0 0 0 0
1168 1650 1451 599 193 0 120 23 87 20 3 52 0 6 0 0 0 0 0 0 6 9 6 2 0 0 0 0 0 0 0 0 0 0 0 0 0 0 0 0 0 0 0
635 1189 1077 447 139 80 205 157 30 35 15 51 194 0 13 0 0 0 0 0 0 6 8 18 3 3 1 0 0 4 2 0 0 0 0 0 0 0 0 0 0 0 0
571 934 1045 290 118 49 564 381 116 131 60 28 56 44 0 0 0 0 0 0 0 0 0 10 22 31 10 0 1 42 0 0 0 0 0 0 0 0 0 0 0 0 0
720 788 1129 401 118 121 166 382 170 37 227 50 5 25 6 0 0 0 4 0 0 0 0 0 10 10 11 13 1 4 0 0 1 13 0 0 0 3 1 0 0 0 0
1374 696 1116 577 383 170 192 379 134 252 121 205 105 83 35 13 12 0 4 0 0 0 0 0 0 0 0 9 71 2 0 37 35 5 1 0 0 0 0 13 4 0 0
954 928 1022 756 310 366 401 423 110 61 339 38 189 98 127 37 34 3 14 0 0 2 0 0 0 0 11 0 0 3 3 4 1 0 1 2 0 1 7 17 22 8 0
1133 1229 1035 911 444 133 406 444 95 180 82 288 140 52 20 94 43 5 42 34 62 0 0 0 1 4 19 32 24 26 27 42 6 1 10 26 22 8 0 0 0 0 0
1656 1252 1365 946 570 362 354 520 140 53 115 159 255 136 50 24 48 126 131 96 127 54 29 9 0 0 0 0 0 0 0 4 18 33 3 0 0 0 1 0 0 0 0
1783 1168 1141 906 573 342 399 365 197 87 117 91 74 200 94 26 28 313 291 233 103 90 61 60 14 0 0 1 0 0 0 0 0 12 7 0 0 0 0 0 0 0 0
2243 1595 1177 871 598 286 371 173 201 192 172 251 155 143 114 215 373 406 420 171 187 101 45 52 25 0 0 0 1 0 0 0 0 0 0 0 0 0 0 0 0 0 0
2737 1848 1206 1102 740 477 434 227 244 227 242 316 255 325 233 426 483 322 229 6 16 12 15 26 3 0 0 11 9 0 0 0 0 0 0 0 0 0 0 0 0 0 0
3013 2680 1928 1199 1008 658 394 97 256 192 317 296 273 399 425 461 64 163 15 25 21 2 28 13 0 0 0 0 42 14 0 0 0 0 0 0 0 0 0 0 0 0 0
3091 3051 2507 1488 1236 761 442 17 127 76 199 268 429 438 142 2 21 72 36 21 31 57 43 11 0 0 0 4 16 37 12 0 0 0 0 0 0 0 0 0 0 3 3
3224 3191 2565 1713 1380 400 20 0 0 0 23 54 96 36 0 0 17 80 59 29 25 63 52 23 2 31 22 0 44 0 0 0 0 0 0 0 0 0 0 0 0 0 0
3259 2712 1762 1326 925 372 0 0 0 0 0 0 11 13 0 0 39 131 48 41 70 94 49 20 10 0 0 0 0 0 0 0 0 0 0 0 0 0 0 0 0 0 0

GFSMA_con_sbcape_024.txt.gz
CAPE
285 374 739 863 771 573 905 770 1112 937 893 1082 801 388 34 442 859 687 165 1330 2252 2555 2084 1912 1724 1603 1477 1661 1720 1494 1177 836 878 853 1181 1259 798 813 685 741 759 812 865
392 419 715 941 1156 1073 1026 1055 913 772 990 1024 1341 1147 515 11 476 555 541 1414 2139 2405 2514 2615 1967 1835 2042 1579 1881 1859 1637 1176 1003 1367 1375 1691 1701 1070 815 1031 1167 1064 703
665 1170 1112 679 1139 937 1385 826 689 606 921 504 332 97 33 1 17 256 652 742 1224 2083 2261 2549 2355 2050 1882 1654 1786 2106 2410 2244 1675 1324 1530 1468 1510 1327 1178 1120 1291 1141 1100
838 1056 1054 1146 779 851 561 449 569 451 23 0 0 0 0 1 17 16 267 335 912 840 1804 2282 2744 2487 1716 1960 1830 1804 2433 2292 2136 2089 1820 1402 1217 1403 1598 1756 1637 1815 1736
1241 821 1016 934 1004 829 733 702 229 189 0 0 0 0 0 10 14 16 14 87 524 735 645 1521 1940 2090 1767 1508 1504 1854 1617 1808 2215 2027 2120 2012 1892 1804 2070 1929 1979 1969 1799
1415 843 903 1124 795 566 681 210 197 171 0 0 0 0 0 0 4 0 13 0 138 479 904 819 797 978 1475 1816 1770 1852 1851 1901 1993 1586 1954 2144 2168 1926 1940 1836 1824 1841 1871
1313 968 799 1010 796 421 526 135 2 0 0 0 0 0 11 2 4 4 0 0 183 275 553 652 817 964 1349 1393 1732 1625 1607 1344 1460 1407 1694 1496 1362 1489 1360 1514 1697 1817 2012
1337 1053 663 807 897 804 418 8 0 0 0 0 0 0 0 1 8 0 0 6 31 343 328 401 311 464 233 163 448 841 787 1077 1171 1150 968 767 691 687 753 857 1102 1297 1464
1373 1042 637 795 801 549 169 0 0 0 0 0 0 0 0 0 27 3 0 0 0 6 14 38 111 391 19 0 0 0 1 53 54 10 0 0 0 0 22 156 389 594 1004
1357 1175 932 743 335 282 0 0 0 0 0 0 0 0 0 0 0 2 0 0 0 0 0 0 0 259 0 0 0 0 0 0 0 0 0 0 0 0 0 0 4 108 249
1261 1102 915 677 105 34 0 0 0 2 1 0 0 6 0 0 0 0 0 0 0 0 0 0 0 10 13 0 0 0 0 0 0 0 0 0 0 0 0 0 0 0 0
1057 1049 956 695 30 0 0 0 0 0 21 7 2 6 0 0 0 0 0 0 0 0 0 0 0 0 5 0 0 0 0 0 0 0 0 0 0 0 0 0 0 0 0
551 1088 888 362 3 0 0 0 5 6 0 2 0 0 1 0 0 0 0 0 0 0 0 0 0 0 0 0 0 3 34 0 0 0 0 0 0 0 0 0 0 0 0
522 769 671 153 3 0 0 0 0 3 0 0 8 0 0 0 0 0 0 0 0 0 0 0 0 0 0 0 0 170 0 0 0 0 0 0 0 0 5 0 0 0 0
256 514 485 92 6 1 67 69 0 0 17 0 2 0 3 0 0 0 0 0 0 0 0 0 0 0 0 0 0 30 0 0 17 6 0 0 0 0 15 26 39 37 13
398 430 507 111 39 0 92 101 22 0 20 37 0 3 0 0 0 0 0 0 0 0 0 0 0 0 0 0 1 2 0 0 0 12 7 15 9 12 21 42 46 43 34
245 332 609 219 76 24 0 132 40 61 0 0 55 5 8 0 0 0 0 0 0 0 1 5 0 0 0 0 0 6 0 0 0 0 11 24 16 7 16 22 18 21 29
354 447 489 427 178 85 22 88 60 59 70 8 0 26 6 9 14 2 1 8 0 0 0 0 5 0 1 0 0 2 0 0 0 0 1 1 1 0 0 0 0 0 0
606 601 529 610 325 149 153 114 127 47 0 13 37 0 1 0 3 5 7 15 44 50 10 11 21 0 0 0 0 0 0 0 0 8 9 8 0 0 0 0 0 0 0
976 770 681 663 481 171 95 273 240 53 4 1 2 23 4 0 0 8 32 115 47 56 35 27 17 16 0 0 0 0 0 0 0 0 0 0 0 0 0 0 0 0 0
1541 954 908 761 531 312 168 120 215 99 1 1 16 8 17 18 7 5 29 48 43 43 29 30 22 12 4 0 0 0 0 0 0 0 0 0 0 0 0 0 0 0 0
2354 1213 878 829 459 391 313 192 218 143 49 32 13 11 32 84 100 62 147 99 43 25 31 13 8 7 0 0 0 0 0 0 0 0 0 0 0 0 0 0 0 0 0
2033 1742 864 733 502 476 233 101 87 65 65 74 50 23 43 200 122 68 1 3 19 21 28 11 9 0 0 0 0 0 0 0 0 0 0 0 0 0 0 0 0 0 0
2295 2242 1483 971 897 646 332 4 62 129 126 140 87 81 113 200 21 2 0 4 16 17 24 24 8 1 0 0 0 0 0 0 0 0 0 0 0 0 0 0 0 0 0
2810 2628 2436 1472 1123 908 252 0 9 60 131 128 179 258 310 55 0 6 0 15 26 14 42 33 5 0 0 0 0 0 0 0 0 0 0 0 0 0 0 0 0 0 0
2868 2825 2716 1767 1342 1278 0 0 120 36 11 16 27 16 1 0 0 0 0 0 5 2 5 0 0 0 0 0 0 0 0 0 0 0 0 0 0 0 0 0 0 0 0

GFSMA_con_sbcape_027.txt.gz
CAPE
392 175 452 615 424 569 1022 781 949 858 566 862 575 30 162 21 80 340 81 1225 1895 2231 1840 1533 1566 1607 1830 1520 1877 1492 1613 1155 1341 1049 831 1319 1003 647 510 668 702 674 793
504 261 301 808 892 1121 975 1071 936 579 738 826 1064 605 35 85 383 605 241 183 1881 1833 2548 1898 1674 1606 1580 1744 1648 1752 1457 1026 810 946 1180 1479 1591 896 708 818 982 1038 1142
443 272 454 533 727 784 1177 922 492 469 336 12 0 0 3 17 13 724 334 433 954 1831 1601 2480 2605 2204 1402 1731 1800 1919 1984 2136 1455 1218 1701 1360 1340 1416 976 1057 1137 1247 1087
377 577 589 562 664 858 803 311 318 126 0 0 0 0 0 4 9 169 362 469 712 810 1266 1856 2455 2104 1670 1522 1427 1874 2133 1592 1795 2078 1883 1244 1604 1612 1558 1631 1303 1242 1427
715 738 838 859 641 496 573 512 122 22 0 0 0 0 0 5 14 6 38 12 414 626 385 1166 1752 1987 1572 1310 1406 1784 1584 2111 2181 1786 1903 1860 1730 1769 1880 1944 1898 1934 1739
1175 734 598 804 755 552 501 80 22 9 0 0 0 0 0 0 0 16 22 3 24 418 599 497 561 751 1483 1703 1802 1883 1736 2059 1870 2030 2195 2013 1709 1790 1949 1931 1899 1912 1888
1155 875 578 740 561 423 419 52 0 0 0 0 0 0 0 0 0 0 0 15 345 564 416 334 432 960 971 1304 1445 1624 1660 1518 1471 1459 1421 1638 1599 1729 1721 1687 1643 1807 1853
1067 870 508 710 582 369 248 11 0 0 0 0 0 0 0 0 0 0 0 42 154 322 302 370 315 398 257 380 967 1403 1415 1548 1358 1242 1041 922 886 786 781 719 940 1192 1463
987 989 485 525 575 430 289 0 0 0 0 0 0 0 0 0 0 0 0 4 22 39 40 75 96 139 0 0 17 168 385 632 509 307 124 41 12 0 1 44 167 288 424
1004 868 620 459 500 410 68 0 0 0 0 0 0 0 0 0 0 0 0 0 0 0 0 0 19 166 0 0 0 0 0 0 0 0 0 0 0 0 0 0 0 0 27
982 970 678 490 247 165 0 0 0 0 0 0 0 0 0 0 0 0 0 0 0 0 0 0 0 59 15 0 0 0 0 0 0 0 0 0 0 0 0 0 0 0 0
961 927 731 425 17 8 0 0 0 0 0 0 0 0 0 0 0 0 0 0 0 0 0 0 0 0 33 0 0 0 55 19 0 0 0 0 0 0 0 0 0 0 0
717 853 704 455 6 0 0 0 0 0 0 0 0 0 0 0 0 0 0 0 0 0 0 0 0 0 0 0 0 20 65 36 0 0 0 0 0 0 0 0 0 0 0
759 847 737 494 16 0 0 0 0 0 0 0 0 0 0 0 0 0 0 0 0 0 0 0 0 0 0 0 0 5 1 50 0 0 0 0 0 15 34 46 35 21 17
778 462 765 452 29 0 0 0 0 0 0 0 0 0 0 0 0 0 0 0 0 0 0 0 0 0 0 0 0 0 25 0 22 24 13 0 9 16 40 58 75 73 69
509 329 540 328 32 0 0 0 0 0 0 0 0 0 0 0 0 0 0 0 0 0 0 0 0 0 0 0 0 1 0 16 1 12 2 0 0 22 46 58 55 60 67
122 261 435 197 47 0 0 0 0 0 0 0 0 0 0 0 0 0 0 0 0 0 0 0 0 0 0 0 0 0 0 0 0 0 0 3 16 17 15 17 11 7 19
73 110 299 197 78 23 0 26 3 6 0 0 0 0 0 0 0 0 0 0 0 0 0 0 0 0 0 0 0 0 0 0 0 0 0 0 0 0 0 0 0 0 0
210 189 239 330 120 49 6 0 28 3 0 0 0 0 0 0 0 0 0 0 0 0 0 0 1 0 0 0 4 0 0 0 0 0 0 0 0 0 0 0 0 0 0
612 309 260 398 285 96 41 10 0 0 0 0 0 0 0 0 0 0 0 0 0 0 2 3 4 1 4 0 0 0 0 0 0 0 0 0 0 0 0 0 0 0 0
1060 622 417 383 366 208 150 103 34 9 0 0 0 0 0 0 0 0 0 2 1 0 1 3 0 1 0 0 0 0 0 0 0 0 0 0 0 0 0 0 0 0 0
1376 784 673 544 490 408 268 85 176 147 13 0 0 1 3 35 13 0 0 6 6 3 0 0 0 0 0 0 0 0 0 0 0 0 0 0 0 0 0 0 0 0 0
1534 1050 987 794 590 501 318 61 36 154 44 25 0 40 0 2 0 0 0 4 2 0 1 2 1 0 0 0 0 0 0 0 0 0 0 0 0 0 0 0 0 0 0
1607 1823 1154 925 822 571 360 23 19 111 31 17 85 56 18 11 3 0 0 0 0 0 0 5 4 0 0 0 0 0 0 0 0 0 0 0 0 0 0 0 0 0 0
1825 1755 1448 989 871 796 199 3 0 179 100 81 51 41 18 4 2 0 0 0 0 0 0 0 0 0 0 0 0 0 0 0 0 0 0 0 0 0 0 0 0 0 0
2393 2049 1839 1285 1153 1237 281 8 0 270 207 166 107 95 41 7 0 0 0 0 0 0 0 3 0 0 0 0 0 0 0 0 0 0 0 0 0 0 0 0 0 0 0

GFSMA_con_sbcape_030.txt.gz
CAPE
447 234 357 589 625 733 939 1005 1201 919 635 949 635 172 284 98 96 214 158 756 1468 1916 1561 1594 1864 1629 1566 1551 1490 1509 1300 1253 1398 1144 1229 1294 1073 1090 673 531 641 697 648
334 258 317 588 1093 1040 1164 1105 982 932 931 913 1163 694 189 200 271 515 502 238 1679 1828 2031 1543 1503 1612 1593 1823 1603 1597 1774 1425 1081 1574 901 1506 1428 934 653 686 836 968 1032
463 479 358 530 683 860 948 924 608 662 66 5 1 0 14 106 29 772 683 336 777 1343 1791 1983 1756 1658 1576 1670 1837 1827 2004 2080 1212 1042 1470 1514 1385 1414 1180 778 1013 1150 1207
404 402 534 526 655 690 985 488 462 182 0 0 0 0 0 10 8 371 686 559 835 925 1011 1566 2320 1931 1281 1274 1336 1973 2085 1716 1614 2047 1924 1713 1525 1432 1676 1706 1292 1163 1116
487 495 638 685 568 604 611 586 194 27 0 0 0 0 3 17 19 51 294 626 417 962 632 813 1462 1566 1312 1226 1382 1393 1438 1601 1612 1910 2094 2136 1777 1825 2147 2007 1926 1852 1546
753 641 630 814 778 587 559 189 94 0 0 0 0 0 0 0 19 43 49 21 144 922 711 735 1135 975 1167 1150 1638 1627 1397 1326 1733 1963 1762 1996 2073 1999 1931 2002 2023 1969 1770
995 813 583 746 735 647 590 128 5 0 0 0 0 0 0 0 0 0 3 236 706 719 698 646 740 1254 1187 1187 1170 1418 1539 1554 1352 1446 1450 1306 1348 2012 1883 1818 1868 1907 1877
954 911 614 704 562 419 298 69 0 0 0 0 0 0 0 7 0 0 7 93 428 562 608 624 702 674 646 1034 1295 1414 1590 1443 1424 1334 1231 1027 841 665 637 451 616 903 1105
1020 1035 605 601 543 404 281 52 0 0 0 0 0 0 0 0 0 0 0 5 148 173 199 308 386 221 115 269 38 329 572 786 654 472 311 162 68 8 10 23 31 104 182
640 1034 648 488 541 454 279 45 0 0 0 0 0 0 0 0 0 0 0 0 0 21 16 8 188 365 27 0 0 0 0 0 0 0 0 0 0 0 0 0 0 0 6
854 967 777 511 472 427 226 2 0 0 0 0 0 0 0 0 0 0 0 0 0 0 0 0 0 224 135 12 0 0 0 0 0 0 0 0 0 0 0 0 0 0 0
793 897 725 590 413 264 107 0 0 0 0 0 0 0 0 0 0 0 0 0 0 0 0 0 0 0 206 82 21 0 53 20 0 0 0 0 0 0 0 0 0 0 0
678 792 726 482 172 56 42 0 0 0 0 0 0 0 0 0 0 0 0 0 0 0 0 0 0 0 0 124 71 63 38 71 26 0 0 0 0 0 0 0 0 0 0
663 864 814 690 294 37 9 0 0 0 0 0 0 0 0 0 0 0 0 0 0 0 0 0 0 0 0 0 7 38 50 17 44 3 0 0 0 4 35 47 57 55 40
675 714 819 774 480 64 6 0 0 0 0 0 0 0 0 0 0 0 0 0 0 0 0 0 0 0 0 0 0 24 57 37 29 32 0 0 0 8 27 50 65 54 87
759 620 809 808 559 69 7 0 0 0 0 0 0 0 0 0 0 0 0 0 0 0 0 0 0 0 0 0 0 28 0 5 27 13 7 0 0 0 17 37 47 52 54
551 523 742 775 544 161 5 2 0 0 0 0 0 0 0 0 0 0 0 0 0 0 0 2 0 0 0 11 2 0 2 12 0 0 0 0 0 0 0 0 0 0 0
399 464 555 673 536 266 80 37 21 14 0 0 0 0 0 0 0 0 0 0 0 0 0 42 1 0 2 0 0 0 0 0 0 0 0 0 0 0 0 0 0 0 0
354 356 490 557 431 268 85 99 87 61 11 0 0 0 0 0 0 0 0 0 0 0 0 0 10 0 8 3 2 0 4 0 1 0 0 0 0 0 0 0 0 0 0
422 409 415 577 462 294 196 121 130 110 70 41 11 0 0 0 12 0 0 0 0 2 0 7 17 23 20 29 3 0 2 0 0 0 0 0 0 0 0 0 0 0 0
829 485 490 533 541 410 278 215 140 120 128 100 103 61 4 0 0 0 0 0 0 0 1 14 6 0 9 9 5 0 0 0 0 0 1 0 0 0 0 0 0 0 0
1259 742 600 588 604 581 352 132 182 179 138 140 136 94 71 36 3 0 0 0 0 0 13 18 13 23 55 24 0 5 0 5 0 0 0 8 0 1 3 0 0 0 0
1313 1141 916 784 725 753 263 118 133 330 230 188 204 144 92 113 11 104 1 0 0 0 1 17 32 49 103 99 23 0 0 0 0 14 0 13 0 0 0 0 0 0 0
1282 1378 1187 1066 957 915 232 87 113 466 421 323 206 176 300 252 88 92 148 0 0 1 6 41 69 116 83 17 21 18 0 0 0 0 0 9 0 0 0 0 0 0 0
1442 1466 1381 1181 1110 1125 259 77 19 390 332 294 200 213 177 147 100 0 3 24 5 0 0 0 0 0 0 0 0 0 4 3 0 0 0 0 0 0 0 0 0 0 0
1835 1685 1730 1499 1150 1313 170 6 26 471 336 349 348 215 74 207 0 0 96 0 0 0 3 4 12 3 0 0 0 0 3 0 0 0 0 0 0 0 0 0 0 0 0

GFSMA_con_sbcape_033.txt.gz
CAPE
1689 1847 1701 1694 1918 1457 1427 2279 1864 1712 1558 1392 1020 675 846 858 800 832 583 686 1363 1491 1171 1303 1580 1515 1542 1438 1413 1076 1254 699 1056 1225 1322 1249 1216 1323 991 531 647 794 598
1857 1855 1778 1542 1802 1919 2093 1736 2094 1599 1677 1574 1609 1016 668 666 841 1023 898 726 1251 1434 1456 1243 1166 1677 1695 1517 1562 1506 1656 1343 1339 1455 1105 1041 1348 1072 749 595 774 955 1032
1699 2034 2079 1714 2014 2011 2314 2142 1540 1393 81 17 105 74 94 477 469 830 1159 637 558 1020 1113 1619 1363 1200 1430 1697 1786 1677 1738 1729 1414 1061 1520 1049 1309 1497 1240 918 760 1152 1283
1615 1877 1993 1698 1709 2173 2641 1890 1234 1173 439 22 8 107 256 140 47 640 883 938 885 680 825 1050 1601 1332 1285 1184 1410 1786 1836 1852 2009 1871 1685 1224 1731 1507 1490 1572 1298 1228 1111
1631 1729 1827 1772 2007 1840 2183 1689 1368 967 153 57 71 99 224 145 239 275 559 881 1043 1073 749 730 1077 1421 1144 1146 1244 1222 1487 2266 2078 1307 1468 1640 1908 1794 2060 1926 1777 1793 1405
1777 1950 1811 2137 1977 1830 1875 1651 1369 642 85 155 0 166 189 293 285 321 329 209 680 1137 1097 956 908 859 844 765 1485 1318 1192 1184 1531 1698 1840 1878 2011 2046 1865 1838 2025 1954 2034
2015 2201 1913 2103 2078 2007 1976 1764 1111 750 0 158 0 202 198 192 161 171 238 654 1082 1217 1290 1159 1036 1328 1211 975 1164 1360 1481 1495 1330 1257 1619 1664 1451 1377 1349 1219 1207 1493 1567
2239 2230 2137 2044 2088 1921 2099 1741 1036 470 192 124 4 126 58 145 101 57 281 734 1190 842 828 902 982 1230 1088 998 1274 1415 1500 1432 1353 1429 1219 1026 961 673 412 210 348 245 435
2280 2347 2330 2073 2207 2097 1758 1800 1013 584 48 140 15 50 56 45 195 45 175 573 860 499 480 267 269 768 680 38 0 202 667 822 487 198 83 32 0 0 0 0 0 8 51
2176 2267 2343 2145 2320 1953 1938 1720 1092 569 105 111 19 0 93 296 86 71 91 281 442 375 384 95 121 381 281 0 0 0 0 0 0 0 0 0 0 0 0 0 0 0 0
2081 2007 2322 2286 2303 2112 2103 1912 1167 563 129 91 60 1 6 17 111 83 67 65 132 89 169 129 36 127 301 48 0 0 0 0 0 0 0 0 0 0 0 0 0 0 0
1693 2069 2118 2379 2348 2180 2183 1921 1422 854 309 151 166 124 13 0 22 89 69 81 54 18 0 2 24 13 198 171 34 0 2 2 0 0 0 0 0 0 0 0 0 0 0
1573 2182 2516 2489 2281 2309 2150 1822 1451 874 559 240 453 219 144 42 13 3 21 29 20 4 11 6 0 3 11 175 235 78 32 23 2 0 0 0 0 0 0 0 0 0 0
1639 2262 2527 2477 2434 2212 1904 1581 1337 836 523 506 398 311 199 148 15 22 4 12 0 0 0 22 0 0 0 2 67 236 142 10 12 0 0 0 0 0 0 0 5 8 0
1537 2011 2373 2467 2425 2177 1738 1482 1176 879 473 504 380 398 241 124 70 3 0 0 0 0 0 15 0 23 56 73 24 60 232 121 0 0 0 0 0 0 0 13 34 55 108
2055 1871 2096 2187 2336 2255 1807 1427 1059 883 543 326 241 401 360 148 137 86 42 2 0 0 0 0 2 25 5 9 25 159 141 15 7 5 0 0 0 0 0 8 18 28 42
2095 2321 2180 2158 2297 2264 1903 1596 1301 921 627 565 355 416 478 454 142 101 90 48 0 0 0 0 0 44 13 165 49 116 82 195 116 0 0 0 0 0 0 0 0 0 0
2279 2686 2450 2198 2310 2219 1974 1740 1477 984 831 733 634 480 430 221 395 245 111 194 37 23 0 278 115 101 131 266 150 295 56 14 78 6 0 0 0 0 0 0 0 0 0
2461 1981 2242 2344 2139 2174 2056 1742 1783 1388 1062 928 775 630 563 420 321 180 161 128 72 172 233 75 53 99 92 100 130 125 109 52 46 0 0 0 0 0 0 0 0 0 0
2488 2501 2453 2403 2273 2072 2053 1847 1790 1636 1404 1182 956 745 669 630 516 502 365 386 327 264 264 170 92 138 239 178 108 76 50 30 64 0 0 0 0 0 0 0 0 0 0
2426 2480 2515 2508 2231 2066 1850 1952 1842 1728 1589 1410 1134 877 731 721 350 504 554 730 698 474 330 249 217 190 122 97 60 9 68 84 72 144 57 118 73 69 42 0 1 0 0
2523 2523 2465 2491 2447 1998 1322 854 1537 1932 1889 1759 1651 1204 1227 334 85 19 29 285 621 679 617 338 203 174 351 307 18 114 86 11 109 174 243 131 261 265 219 158 0 0 0
2584 2568 2399 2441 2435 2424 736 236 285 1920 1800 2035 2059 1676 1281 856 229 506 24 0 0 31 249 808 604 516 568 339 344 307 138 250 306 489 257 251 316 364 115 9 0 0 0
2762 2758 2558 2456 2490 2421 444 51 82 1577 2188 2146 1848 1893 1699 1312 865 998 904 516 367 345 133 202 724 890 593 425 383 186 383 385 340 282 357 145 34 70 1 0 0 0 0
2670 2809 2788 2778 2633 2650 342 6 23 1340 2040 1846 1711 1564 1617 1517 981 122 870 991 834 781 120 5 34 12 0 0 61 189 317 178 80 40 62 18 2 4 0 0 0 0 0
2675 2588 2821 2957 2353 2755 353 0 40 1580 1989 1738 1935 1729 525 1397 689 0 905 1117 1133 910 535 91 14 2 0 3 0 180 273 45 8 5 15 0 0 1 0 0 0 0 0

GFSMA_con_sbcape_036.txt.gz
CAPE
1911 1834 1725 1556 1632 1760 1114 1272 1114 968 1112 751 321 213 40 56 159 203 641 1152 1398 1232 1043 1247 1349 1291 1496 1551 1371 1443 938 541 964 1259 1262 1190 1220 1201 874 533 552 884 541
2169 1884 1738 1491 1474 1658 1616 643 1095 1077 1392 1093 948 503 48 96 335 259 239 730 1163 1305 984 1083 1481 1671 1713 1561 1538 1319 1395 1229 1202 1495 1138 1320 1256 1126 947 565 579 790 1027
2137 1844 1491 1608 1377 1422 1331 1284 1680 1688 767 400 430 440 32 95 136 279 139 385 606 943 1077 1059 1182 1467 1667 1752 1770 1677 1645 1708 1582 1273 1447 1097 1106 1212 1310 1050 731 865 1155
2082 2177 2037 1652 2025 1374 1128 1247 1589 1085 608 215 59 139 40 59 88 133 88 236 234 660 757 1209 1054 1039 1068 1460 1428 1722 2044 1756 2007 1865 1281 1219 1108 1690 1445 1399 1422 1142 1244
1903 2364 1875 1742 2328 2296 1310 1388 1321 954 323 160 121 71 161 169 174 74 191 273 585 505 615 900 1200 1144 1091 1178 1226 1138 1626 2278 2219 1829 1604 1658 1638 1641 1483 1732 1713 1671 1452
1795 2444 1909 1671 1785 1770 1551 1572 1624 915 135 35 1 16 134 172 185 151 99 105 366 820 648 672 858 922 765 737 1385 1407 1048 1172 1476 1588 1595 1810 1951 1839 1744 1697 1740 1672 1572
2345 2798 2260 2234 2190 1716 1765 1718 1177 1208 166 8 18 49 117 111 202 93 100 163 132 237 277 507 855 550 1035 891 1053 1250 1340 1388 1272 1229 1324 1320 1558 1240 1239 1177 783 587 955
2637 2907 2945 2250 2364 2058 2265 1967 1677 538 258 11 27 68 78 57 68 105 256 119 184 56 42 55 178 405 457 937 1143 1389 1363 1257 1344 1196 1136 1107 840 640 500 499 304 367 226
2679 3055 2698 2636 2452 2449 1846 2247 1882 1284 238 0 123 132 42 146 53 65 364 67 129 78 13 0 71 352 151 0 44 282 734 679 191 0 0 0 0 0 0 0 0 0 4
2548 2646 2861 2919 3031 2226 2048 2206 1829 1431 1177 14 4 6 256 650 60 59 36 280 163 77 59 19 12 0 0 0 0 0 0 0 0 0 0 0 0 0 0 0 0 0 0
2607 2315 2778 2973 2959 2781 2492 2639 2229 2137 1055 128 1 0 36 23 187 108 89 140 208 62 112 48 30 40 31 1 0 0 0 0 0 0 0 0 0 0 0 0 0 0 0
2006 2478 2387 3015 3075 2819 2759 2835 2711 2204 1756 723 33 77 0 0 11 86 72 79 106 149 35 21 26 15 42 22 9 0 0 0 0 0 0 0 0 0 0 0 0 0 0
1376 2631 2630 2785 2836 3193 2833 3016 2884 2092 2062 1385 846 100 40 3 0 0 23 14 8 19 51 25 29 3 4 20 43 8 0 0 2 0 0 0 0 0 0 0 0 0 0
1633 1756 2203 2552 2853 2869 3120 3109 2689 2200 1799 1741 1158 549 117 87 36 0 0 0 0 0 0 19 2 3 0 0 70 414 41 0 0 0 0 0 0 0 0 0 27 54 80
1789 1883 2104 2786 2839 2832 3126 3059 2460 2108 1596 1833 1238 807 306 81 79 26 0 0 0 1 7 103 0 4 0 17 38 138 316 134 59 16 16 12 6 0 0 16 84 127 183
2994 2264 2324 2621 2768 2826 3051 3054 2506 2211 1878 1518 846 596 596 119 125 106 59 7 0 0 0 0 0 3 8 4 85 176 278 42 60 14 0 4 0 0 0 2 11 45 81
3654 3013 3097 2547 2445 2625 2952 3123 2813 2219 2029 1811 1040 644 968 807 118 90 107 63 40 11 0 0 0 272 347 292 30 117 166 134 106 0 0 0 0 0 0 2 4 4 0
3549 3551 3289 3047 2764 2499 2872 3143 2891 2226 2153 1968 1600 1086 885 689 810 913 232 930 404 355 58 220 208 116 587 428 584 626 172 51 43 18 0 0 0 0 0 0 0 0 0
4026 2811 3334 3979 3141 2825 3141 3140 2918 2753 2414 2172 1856 1591 1208 826 1072 477 453 367 286 254 405 155 70 263 60 296 532 600 485 277 100 3 0 0 0 0 0 0 0 0 0
4064 3886 3941 4077 3663 3116 2876 2960 2848 2821 2784 2419 2187 1856 1508 986 1250 941 491 699 626 357 538 307 177 110 252 346 303 158 207 354 90 72 5 0 0 0 0 0 0 0 0
3917 4033 4079 4075 4083 3164 2380 3445 3390 2880 3192 2812 2439 2177 1759 1308 644 839 597 1331 1575 738 277 438 400 226 243 182 331 216 125 92 371 375 135 172 134 167 68 0 0 0 0
4023 4122 4080 4136 4066 3048 1729 1393 2706 3248 3512 3288 3301 2743 2425 1082 634 349 346 471 1276 1730 1640 391 402 599 1107 579 256 243 44 229 90 1201 572 229 105 134 257 294 1 0 0
4112 4183 4141 4188 4183 4087 1634 663 1149 2898 3297 3650 3704 2923 2319 1889 1239 1349 200 133 253 574 593 1537 1251 1322 988 934 903 571 590 329 293 484 579 278 135 192 121 14 0 0 0
4106 4166 4177 4237 4221 4090 1988 283 382 2832 3519 3842 3579 3356 3411 3065 2426 1636 1591 894 541 941 786 606 1067 1072 1564 986 858 667 582 611 481 470 518 284 65 18 7 3 0 0 0
3882 3796 3602 4297 4312 4162 1650 127 245 2431 2696 3806 3753 3452 3605 3520 2477 837 1748 1746 1210 1140 309 141 152 67 22 128 393 355 259 414 168 235 408 97 19 11 7 0 0 0 0
3559 3220 3372 4215 3754 4292 1640 37 187 2304 2610 2479 3667 3970 1841 2744 2142 209 1641 2465 1978 1756 1488 798 422 41 14 24 0 275 234 155 94 38 58 0 0 4 6 0 0 0 0

GFSMA_con_sbcape_042.txt.gz
CAPE
1597 1331 1804 1149 1573 1310 1354 2206 1723 1339 103 1063 816 882 62 289 396 150 725 1737 1851 1849 1923 1625 1314 1529 1466 1400 1157 872 904 1364 1255 1233 1192 1155 1106 890 698 572 374 642 595
1875 2866 2014 1810 2049 735 943 2055 2417 2102 1484 884 245 913 51 323 524 435 498 1388 1944 1785 1911 1831 1555 1355 1540 1550 1543 1256 1435 606 985 1269 1199 1287 1174 1112 1084 830 459 562 885
2942 3221 2295 1955 1221 2389 2635 1954 2171 834 425 1142 297 210 520 273 44 406 363 476 1410 1800 1860 1902 2039 2242 1609 1621 1588 1580 1582 1620 1201 1356 1653 1413 1287 1287 1342 1187 1148 897 979
2690 2359 573 1572 1436 2901 2340 2340 852 1727 1118 1057 572 574 111 328 300 418 176 396 557 528 1581 1992 2044 2192 1756 1782 1712 1738 1855 1581 1717 1847 1817 1527 1675 1373 1652 1760 1419 1465 1579
2980 2857 1289 647 920 2685 1668 1993 1361 1777 1208 413 8 609 437 31 18 52 244 434 710 166 462 1847 1949 2033 1488 1474 1459 1343 1540 1776 1903 1958 1890 1842 1860 1773 1768 1793 1820 1949 1848
2967 2762 1154 923 2230 951 2630 2506 2086 824 1110 150 28 188 282 40 23 121 191 197 683 718 399 661 1424 1005 1595 1601 1682 1479 1103 1177 1455 1811 1857 1941 1923 1974 1934 1594 1512 1405 1176
3237 3053 2590 1859 2794 2257 1542 2835 1265 1587 1289 136 385 369 364 305 600 189 58 61 427 187 305 1227 478 616 717 1152 1131 1273 1152 1057 950 867 1071 1292 1501 1454 1175 1107 1056 845 589
3094 3680 2283 2794 2330 2467 2851 2222 2600 1893 977 980 530 51 178 425 174 64 330 394 225 397 210 238 627 1066 403 1196 1251 1654 1633 1274 1135 1094 1086 1010 950 821 775 595 415 234 3
3252 3193 2964 2798 2593 3483 3027 2975 2182 2111 546 287 990 231 298 296 158 187 236 49 138 10 10 181 221 715 356 78 732 963 1354 899 320 84 37 1 104 14 0 0 0 0 0
2721 3262 3024 2596 3404 2580 2296 2599 3032 2799 1896 736 179 518 1274 1690 965 158 315 189 360 97 303 96 70 72 7 0 278 379 102 0 0 0 0 0 0 0 0 0 0 0 0
3243 3274 3360 3147 3970 2797 2978 2697 3113 2666 2960 1947 727 344 765 1013 1087 328 287 356 242 536 536 292 20 17 173 0 0 0 8 0 0 0 0 0 0 0 0 0 0 0 0
2756 3650 3476 3386 3551 3542 3383 3337 4075 3527 3078 2877 2007 934 409 205 486 302 352 500 366 682 414 150 94 132 121 14 0 0 0 0 0 0 0 0 0 0 0 0 0 0 0
2402 2788 3403 3542 3234 3309 3533 3689 4023 3969 3398 2979 2381 1901 1159 1089 1031 679 1096 458 677 472 498 422 406 265 212 350 0 0 0 0 0 0 0 0 0 0 0 0 0 0 0
1898 2998 2677 3271 3000 3276 3288 3871 3898 3326 3406 2823 3152 2211 1539 1341 770 465 487 632 436 325 975 528 448 454 333 452 0 0 0 0 0 0 0 0 0 0 0 10 73 106 30
2552 3632 2957 3179 3008 3373 3122 3840 3104 3534 3657 2961 2606 2875 2000 1204 1052 707 611 612 736 440 474 1293 214 398 601 175 44 0 17 0 0 0 0 0 0 0 0 0 35 75 73
2694 4148 3391 3187 3372 3395 3562 3547 3485 3448 3331 3125 2398 2387 2130 691 783 1075 966 753 679 599 453 634 730 333 123 532 409 478 289 15 0 0 0 0 0 0 0 0 12 15 0
4182 3152 3883 3436 3395 3351 3352 3774 3062 3066 3499 2891 2607 2482 2120 1394 1103 1325 932 1054 994 857 582 474 1365 1392 1038 371 179 350 347 450 30 0 0 0 0 0 0 0 0 0 0
3239 4178 3766 3488 3312 3224 3452 3317 3301 2368 3213 2974 2435 2474 2376 1537 1686 1794 2029 1102 961 1237 1025 1283 1384 1288 1361 998 1052 1196 487 138 571 49 0 0 0 0 0 0 0 0 0
3812 3138 3932 3867 3240 3304 3304 3461 3227 2952 2166 3182 2945 2323 2112 1829 1642 913 1332 1368 1246 1538 1887 914 1123 1492 1466 1261 973 982 1394 812 685 10 0 0 0 0 0 0 0 0 0
3243 3698 3540 3501 3703 3405 3360 3275 3392 3481 3115 2663 3268 2888 2403 1922 1523 1744 1196 1028 1259 1336 1008 1306 916 737 1381 1043 886 673 897 895 637 38 0 0 0 0 0 0 0 0 0
3803 3531 3664 3858 3619 3650 3483 3337 3259 3394 3437 3059 2951 3138 2814 2290 1632 1527 1589 1637 915 1228 1277 655 711 887 847 1247 515 604 544 438 578 597 270 208 154 0 0 0 1 5 0
4014 4123 3917 3615 3820 3683 3325 2832 3010 3306 3416 3409 3188 3072 2977 2354 1760 1240 1333 1247 1413 863 644 528 608 544 683 984 1129 583 357 534 173 385 301 444 530 419 170 50 21 18 0
4152 4174 4180 4054 3743 3819 3160 2017 1843 3230 3293 3404 3402 3253 3099 2897 2173 1681 682 901 552 740 689 740 592 1008 1707 1495 1410 1272 1079 711 345 519 234 155 225 256 50 0 0 0 0
4218 4173 4213 4185 4024 3828 3297 1451 1019 2694 3132 3226 3338 3378 3247 3037 2804 2261 1668 884 862 445 177 592 1016 834 1384 1814 1247 1489 1227 867 605 394 379 94 160 180 24 0 0 0 0
4214 4324 4266 4266 4247 4115 3043 1562 248 2252 2800 2971 3236 3267 3258 3189 2997 1579 2103 1534 943 765 421 341 577 1258 1058 893 1289 793 692 300 220 212 542 145 210 166 0 0 0 0 0
4349 4270 4268 4285 4134 4246 3828 1191 334 2821 2686 2689 2848 3075 2374 3032 2949 900 1792 2086 1697 1057 857 445 122 7 49 99 263 778 497 247 154 150 232 170 66 0 0 0 0 0 0

GFSMA_con_sbcape_048.txt.gz
CAPE
0 66 279 369 134 245 280 504 755 731 293 36 28 373 620 290 336 1076 1391 2356 2309 2187 1653 1387 763 606 759 1124 1241 1241 1273 1339 950 885 1051 1208 1114 892 590 502 334 480 669
293 515 544 579 331 287 390 86 716 622 245 96 32 222 164 52 91 648 857 1602 2383 2308 2054 1494 1535 1448 1316 860 819 1029 1138 1383 1277 1229 1288 1330 1241 1192 1209 1088 606 472 673
390 609 419 612 538 363 315 223 649 89 34 124 1 59 54 28 50 173 433 813 1598 2482 2082 1731 1658 1653 1610 1419 1464 1210 1343 688 1040 1134 1424 1215 1356 1376 1316 1285 1198 1226 1091
585 562 595 518 450 630 760 722 649 200 33 186 29 48 48 44 47 148 322 590 813 1077 2155 2338 2333 2018 1500 1526 1585 1684 1390 1586 1528 1356 1537 1592 1245 1291 1098 1438 1403 1299 1220
434 35 223 388 223 228 1137 744 329 305 145 186 61 33 31 80 47 72 143 146 304 419 854 2021 1962 2118 1608 1568 1647 1439 1679 1934 1859 1689 1687 1651 1583 1515 1511 1411 1281 1118 1242
560 162 269 0 0 795 725 700 337 68 95 91 114 32 6 30 58 45 63 74 79 143 251 992 1092 1100 1636 1865 1673 1685 1485 1536 1866 1659 1643 1580 1440 1201 1208 1202 991 786 795
1243 761 507 236 159 635 684 310 0 0 0 16 26 1 13 33 37 34 13 45 9 7 124 273 379 326 758 1434 1354 1578 1309 1077 1092 1075 1339 1124 1113 1088 803 598 509 561 433
1269 852 490 476 507 889 338 572 77 145 0 3 32 7 0 13 1 0 0 79 0 0 118 86 85 33 190 292 387 1233 1227 1047 1059 1083 1090 1033 856 700 499 438 323 9 0
1281 1241 869 964 789 841 632 637 258 2 0 12 4 0 11 0 0 0 0 0 0 0 0 83 34 37 22 50 765 1082 1115 931 858 711 446 160 37 4 0 0 0 0 0
1248 1453 1044 1012 638 771 901 796 101 163 0 0 0 32 0 3 0 0 0 0 0 0 0 14 75 42 37 96 429 653 960 433 184 0 0 0 0 0 0 0 0 0 0
903 1035 1283 1056 760 902 830 535 908 294 0 0 0 0 0 0 0 0 0 0 0 0 0 0 51 33 10 0 39 277 478 0 3 20 0 0 0 0 0 0 0 0 0
737 1365 1215 1038 878 854 974 502 956 513 169 0 0 0 0 0 0 4 1 0 0 0 0 0 0 2 0 0 14 109 180 0 0 0 0 0 0 0 0 0 0 0 6
651 873 1614 1241 1177 1047 966 729 938 675 416 769 189 0 0 0 0 0 0 0 0 0 0 0 0 0 0 0 0 75 135 0 0 0 0 0 3 20 69 17 0 0 0
891 902 1493 1461 1243 1404 1271 1308 1197 934 398 590 716 65 10 0 0 0 0 0 0 0 0 0 0 0 0 0 0 54 0 0 0 0 0 0 0 0 0 0 2 2 1
990 955 1332 1787 1322 1334 1365 1403 1381 1555 1340 750 519 803 152 2 0 0 0 0 0 0 0 0 0 0 0 0 0 0 0 0 0 0 0 0 0 0 0 0 0 0 0
647 1099 1014 1750 1648 1362 1277 1210 1448 1586 1738 1366 980 764 795 498 75 19 0 0 0 0 0 0 15 0 0 3 0 0 0 0 0 0 0 0 0 0 0 0 0 0 0
144 677 1119 1329 1717 1618 1362 1229 1174 1694 1498 1588 1537 1050 877 727 525 27 0 0 0 0 0 0 0 0 0 0 0 0 0 0 0 0 0 0 0 0 0 0 0 0 0
713 578 1124 1301 1576 1664 1565 1443 1362 1612 1854 1624 1650 1454 1171 972 802 293 0 0 0 0 0 0 0 158 7 0 0 0 0 0 0 0 0 0 0 0 0 0 0 0 0
587 1063 1585 1537 1684 1667 1784 1774 1576 1527 1636 1752 1724 1501 1478 1254 1209 814 123 7 39 0 0 0 0 0 0 0 1 0 0 0 0 0 0 0 0 0 0 0 0 0 0
483 1019 1376 1982 1837 1955 1779 1820 1940 1953 1828 1715 1642 1629 1565 1318 1445 1039 484 183 9 216 0 16 0 49 15 74 9 1 17 4 0 37 6 0 0 0 0 0 0 0 0
1599 889 1134 1500 2138 2103 2110 2046 1928 1905 2051 1914 1548 1796 1690 1450 1349 1189 1031 648 48 14 26 18 8 0 7 160 114 0 0 3 37 0 0 0 0 0 0 0 0 0 0
1162 1634 1683 1648 1776 2284 2271 1781 2048 2102 2033 2014 1865 1477 1679 1678 1251 939 684 874 496 231 97 96 174 89 46 15 96 72 4 0 5 1 2 0 0 0 0 0 0 0 0
2060 1441 1721 1905 1820 2061 2162 1315 1248 2097 2162 2124 2060 1957 1753 1723 1649 1600 389 202 266 158 224 10 25 143 69 52 0 45 59 26 40 5 64 79 0 0 0 10 4 0 0
2724 2554 2062 2074 2255 2047 1977 947 592 1846 2158 2170 2294 2287 2253 2215 1859 1850 1933 1141 633 710 175 38 25 0 13 34 8 31 32 38 1 0 5 32 0 10 3 0 0 0 0
2850 2909 2969 2696 2397 2580 2131 1051 183 1472 2189 2446 2385 2319 2472 2511 2397 1299 1942 2090 1837 1333 905 228 119 139 0 6 10 14 11 0 0 0 0 0 0 0 0 0 0 0 0
3054 3027 3044 3188 3096 2873 2671 1073 185 1953 2198 2387 2605 2655 2099 2312 2560 1332 1327 2151 2219 2133 1647 1280 62 27 7 1 0 41 63 19 9 0 0 5 6 1 0 0 0 0 0